Regional Weather Roundup
Issued by NWS

Home | Current Version | Previous Version | Graphics & Text | Print | Product List | Glossary On
Versions: 1 2 3 4 5 6 7 8 9 10 11 12 13 14 15 16 17 18 19 20 21 22 23 24 25 26 27 28 29 30 31 32 33 34 35 36 37 38 39 40 41 42 43 44 45 46 47 48 49 50
020
ASUS43 KMPX 250510
RWRMN
WEATHER ROUNDUP FOR MINNESOTA
NATIONAL WEATHER SERVICE TWIN CITIES/CHANHASSEN MN
1200 AM CDT MON JUL 25 2016


NOTE: "FAIR" INDICATES FEW OR NO CLOUDS BELOW 12,000 FEET WITH NO
SIGNIFICANT WEATHER AND/OR OBSTRUCTIONS TO VISIBILITY. N/A MEANS
CURRENT SKY AND/OR WEATHER CONDITIONS ARE NOT AVAILABLE.

MNZ060>063-068>070-250600-
   Twin Cities Metro

CITY           SKY/WX    TMP DP  RH WIND       PRES   REMARKS
TWIN CITIES    CLEAR     74  62  66 W7        29.97S
ST PAUL        CLEAR     74  61  63 W12       29.97R
CRYSTAL        CLEAR     72  60  66 W6        29.96S
BLAINE         CLEAR     72  63  73 W7        29.97S
LAKEVILLE      CLEAR     66  64  94 W3        29.99S
EDEN PRAIRIE   CLEAR     70  64  81 W5        29.98R
LAKEVILLE      CLEAR     66  64  94 W3        29.99S
SOUTH ST PAUL  CLEAR     73  62  68 W5        29.97R
LAKE ELMO      FAIR      72  63  73 W6        29.98S
$$
MNZ001>005-007-008-013>017-022>024-027-028-250600-
   Northwest Minnesota

CITY           SKY/WX    TMP DP  RH WIND       PRES   REMARKS
BEMIDJI        CLEAR     64  61  88 W6        29.96S
HALLOCK        CLEAR     64  63  94 CALM      29.93S
ROSEAU         CLEAR     66  61  82 W6        29.93S
WARROAD        CLEAR     63  61  94 W6        29.93S
THIEF RVR FALL CLEAR     65  61  87 W7        29.96S
CROOKSTON      CLEAR     64  61  88 W6        29.96S
FOSSTON        CLEAR     61  57  88 W3        29.97S
DETROIT LAKES  CLEAR     68  59  73 W7        30.01S
MOORHEAD       CLEAR     66  61  82 SW3       29.99F
PARK RAPIDS    CLEAR     63  58  83 W5        29.98S
MAHNOMEN       FAIR      63  58  85 W8        29.98S
$$
MNZ006-009>011-018-025>026-250600-
   North Central Minnesota

CITY           SKY/WX    TMP DP  RH WIND       PRES   REMARKS
FLAG ISLAND    CLEAR     66  61  82 W9        29.90R
INTL FALLS     CLEAR     62  58  86 W6        29.90R
WASKISH        CLEAR     70  63  78 W9        29.93S
BIG FORK       CLEAR     64  59  82 CALM      29.93R
LONGVILLE      CLEAR     64  61  88 W5        29.96R
GRAND RAPIDS   CLEAR     68  61  78 W7        29.95S
CRANE LAKE     CLEAR     64  57  77 W3        29.90R
ORR            CLEAR     66  57  72 NW6       29.88R
COOK           CLEAR     63  59  88 CALM      29.91R
WALKER         FAIR      65  60  85 W7        29.96S
$$
MNZ012-019>021-037-250600-
   Northeast Minnesota

CITY           SKY/WX    TMP DP  RH WIND       PRES   REMARKS
DULUTH         CLEAR     67  61  81 W9        29.91R
ELY            CLEAR     66  57  72 W7        29.88S
HIBBING        CLEAR     66  59  78 W6        29.91S
EVELETH        CLEAR     67  58  72 W7        29.92R
DULUTH HARBOR  CLEAR     73  64  73 W13       29.89S
TWO HARBORS    CLEAR     70  63  78 CALM      29.86S
SILVER BAY     CLEAR     68  59  73 CALM      29.85S
GRAND MARAIS     N/A     69  59  70 W3        29.79S
G MARAIS ARPRT CLEAR     64  54  68 W6        29.85F
$$
MNZ029>031-032-039>041-046>048-054>057-064-250600-
   West Central Minnesota

CITY           SKY/WX    TMP DP  RH WIND       PRES   REMARKS
FERGUS FALLS   CLEAR     66  59  77 CALM      30.02R
WHEATON        CLEAR     66  63  88 SW5       30.03S
MORRIS         CLEAR     64  61  88 W6        30.01S
ALEXANDRIA     PTCLDY    65  58  78 SW3       30.03R
ELBOW LAKE     FAIR      62  59  90 SW5       30.02R
WADENA         CLEAR     61  57  88 SW3       29.99S
GLENWOOD       CLEAR     64  61  88 W6        30.03S
APPLETON       CLEAR     64  59  82 W5        30.02S
BENSON         CLEAR     63  57  82 CALM      30.02S
ORTONVILLE     CLEAR     70  61  73 W5        30.03S
MADISON        CLEAR     66  61  82 W5        30.03F
WILLMAR        FAIR      66  63  88 W3        30.03S
$$
MNZ033>034-036-042>043-049>051-058-059-250600-
   Central Minnesota

CITY           SKY/WX    TMP DP  RH WIND       PRES   REMARKS
ST CLOUD       CLEAR     69  60  73 W9        29.98R
SAUK CENTRE    FAIR      63  58  86 W5        30.01S
PAYNESVILLE    CLEAR     62  61  98 W3        30.02S
AITKIN         CLEAR     68  59  73 SW3       29.95S
PINE RIVER     CLEAR     66  61  82 CALM      30.00S
BRAINERD       CLEAR     70  59  68 W8        29.98R
STAPLES        CLEAR     63  57  82 W6        29.99S
LONG PRAIRIE   FAIR      64  59  82 SW5       30.01S
LITTLE FALLS   CLEAR     64  57  77 W6        29.99S
LITCHFIELD     CLEAR     70  63  78 W5        30.02R
BUFFALO        CLEAR     69  61  75 W5        30.00S
MAPLE LAKE     CLEAR     70  62  75 W3        30.00S
HUTCHINSON     CLEAR     65  64  94 W5        30.02S
$$
MNZ037-044-045-052-053-250600-
   East Central Minnesota

CITY           SKY/WX    TMP DP  RH WIND       PRES   REMARKS
PRINCETON      CLEAR     68  61  77 CALM      29.98R
MORA           CLEAR     64  59  82 W3        29.98R
CAMBRIDGE      CLEAR     72  59  64 W3        29.95S
RUSH CITY      CLEAR     67  60  79 W3        29.96R
MOOSE LAKE     CLEAR     64  59  82 W5        29.92S
HINCKLEY       FAIR      66  63  88 W6        29.95S
CLOQUET        CLEAR     66  57  72 W7        29.92S
MCGREGOR       CLEAR     68  61  77 W7        29.95S
$$
MNZ071>073-080-081-089-090-097-098-250600-
   Southwest Minnesota

CITY           SKY/WX    TMP DP  RH WIND       PRES   REMARKS
MONTEVIDEO     CLEAR     68  61  77 W5        30.04S
GRANITE FALLS  CLEAR     67  65  93 W6        30.04F
CANBY          CLEAR     67  61  80 W3        30.05F
MARSHALL       CLEAR     65  63  93 W5        30.05S
REDWOOD FALLS  CLEAR     68  62  81 W7        30.02S
OLIVIA         CLEAR     64  61  88 CALM      30.02S
PIPESTONE      CLEAR     70  63  78 NW5       30.08F
WINDOM         CLEAR     66  63  88 W3        30.06S
WORTHINGTON    CLEAR     64  61  90 W6        30.08F
JACKSON        CLEAR     64  61  88 W5        30.07S
TRACY          CLEAR     69  65  88 W5        30.06S
SLAYTON        HVY RAIN  65  62  91 W5        30.08F
$$
MNZ065>067-074>077-082>085-091>093-250600-
   South Central Minnesota

CITY           SKY/WX    TMP DP  RH WIND       PRES   REMARKS
MANKATO        CLEAR     66  61  82 W5        30.02R
NEW ULM        CLEAR     64  63  94 W6        30.02S
ST JAMES       CLEAR     63  59  88 CALM      30.05R
FAIRMONT       CLEAR     66  63  88 W6        30.03S
GLENCOE        CLEAR     70  65  86 W7        30.00S
FARIBAULT      CLEAR     66  64  94 SW6       30.01S
OWATONNA       CLEAR     66  63  88 CALM      30.02R
WASECA         CLEAR     63  61  94 SW5       30.04R
ALBERT LEA     CLEAR     66  64  94 W3        30.03S
$$
MNZ078>079-086>088-094>096-250600-
   Southeast Minnesota

CITY           SKY/WX    TMP DP  RH WIND       PRES   REMARKS
ROCHESTER      CLEAR     66  64  93 W8        30.01S
RED WING       CLEAR     66  64  94 CALM      29.96R
STANTON        CLEAR     68  63  83 CALM      29.98S
DODGE CENTER   CLEAR     64  63  94 W7        30.02S
WINONA         CLEAR     73  64  73 W7        29.97S
AUSTIN         CLEAR     68  63  83 W5        30.02S
PRESTON        CLEAR     66  62  86 W8        30.01S
$$
ABBREVIATIONS USED IN REMARKS
   TC - TEMPERATURES IN CELSIUS
  WCI - WIND CHILL INDEX
   HX - HEAT INDEX
  VSB - VISIBILITY
$$




USA.gov is the U.S. government's official web portal to all federal, state and local government web resources and services.